Location: Axtheid
(49.6213°N, 11.8205°E)
Time: 13:10:44
(UTC+00:00)

COSMOS 2406 - Pass Details

Date: 24 January 2021
Orbit: 841 x 866 km, 71.0° (Epoch: 25 February)

Event Time Altitude Azimuth Distance (km) Brightness Sun altitude
Rises 16:37:57 0° 334° (NNW) 3,460 6.5 -7.1°
Reaches altitude 10° 16:40:49 10° 346° (NNW) 2,520 5.6 -7.5°
Maximum altitude 16:45:43 28° 44° (NE) 1,591 4.2 -8.3°
Drops below altitude 10° 16:50:36 10° 102° (ESE) 2,504 5.1 -9.0°
Enters shadow 16:52:22 - 110° (ESE) 3,075 5.6 -9.3°
